sat.trackr.live / text

‹ back to catalog

STARLINK-5985

NORAD 56451 · 2023-064D

PAYLOAD ACTIVE UNKNOWN

§ Identity

Operator
Country
US
Launch date
2023-05-10
Launch site
AFWTR
Launch vehicle
Mass (kg)
RCS (m²)

Purposes: comms

External: N2YO · Heavens-Above · Gunter

§ Orbital elements

Epoch: 2026-09-20T13:46:46.785504Z

Period
96.11 min
Inclination
70.0009°
Eccentricity
0.0003267
Mean motion
14.98329776 rev/d
Perigee alt
569.8 km
Apogee alt
574.3 km
Semi-major
6,950.2 km
B*
1.8078e-5
RAAN
13.2555°
Arg perigee
268.3909°
Mean anomaly
91.6876°
Rev number
18,443

§ Raw data

STARLINK-59851 56451U 23064D   26263.57415261  .00000123  00000+0  18078-4 0  99992 56451  70.0009  13.2555 0003267 268.3909  91.6876 14.98329776184438

JSON: /api/v1/satellites/56451 · /tle

For live sub-satellite position, see the globe view (requires WebGL).

§ Visibility from observer

Set your observer location to see the next 7 days of passes ≥ 10°. The values pass through the URL so the page stays shareable.

No JS? Fill the form by hand. The geolocation button needs JavaScript.